Location: Borovka
(49.7741°N, 14.5280°E)
Time: 05:29:50
(UTC+00:00)

Cosmos 2151 Rocket - Pass Details

Date: 17 November 2025
Orbit: 611 x 636 km, 82.5° (Epoch: 16 December)

Event Time Altitude Azimuth Distance (km) Brightness Sun altitude
Rises 17:35:37 0° 195° (SSW) 2,918 7.3 -22.3°
Reaches altitude 10° 17:37:51 10° 197° (SSW) 2,017 6.4 -22.6°
Maximum altitude 17:42:19 70° 281° (WNW) 683 3.8 -23.4°
Enters shadow 17:45:44 17° 4° (N) 1,609 5.6 -23.9°
